TimeCDT,TemperatureF,Dew PointF,Humidity,Sea Level PressureIn,VisibilityMPH,Wind Direction,Wind SpeedMPH,Gust SpeedMPH,PrecipitationIn,Events,Conditions,WindDirDegrees,DateUTC
12:16 AM,33.8,28.4,81,29.95,10.0,SSE,3.5,-,N/A,,Clear,160,2014-04-09 05:16:00
12:35 AM,33.8,28.4,81,29.95,10.0,SSE,3.5,-,N/A,,Clear,160,2014-04-09 05:35:00
12:55 AM,32.0,28.4,87,29.94,10.0,Calm,Calm,-,N/A,,Clear,0,2014-04-09 05:55:00
1:16 AM,33.8,28.4,81,29.94,10.0,SSE,3.5,-,N/A,,Clear,160,2014-04-09 06:16:00
1:35 AM,33.8,28.4,81,29.94,10.0,SSE,4.6,-,N/A,,Clear,160,2014-04-09 06:35:00
1:55 AM,33.8,28.4,81,29.93,10.0,SSE,4.6,-,N/A,,Clear,150,2014-04-09 06:55:00
2:16 AM,33.8,28.4,81,29.93,10.0,SSE,4.6,-,N/A,,Clear,160,2014-04-09 07:16:00
2:35 AM,33.8,28.4,81,29.92,10.0,SSE,4.6,-,N/A,,Clear,150,2014-04-09 07:35:00
2:55 AM,33.8,28.4,81,29.91,10.0,SSE,4.6,-,N/A,,Clear,160,2014-04-09 07:55:00
3:16 AM,35.6,28.4,75,29.90,10.0,SSE,4.6,-,N/A,,Clear,160,2014-04-09 08:16:00
3:35 AM,35.6,28.4,75,29.89,10.0,SSE,5.8,-,N/A,,Clear,160,2014-04-09 08:35:00
3:56 AM,37.4,28.4,70,29.88,10.0,South,4.6,-,N/A,,Mostly Cloudy,170,2014-04-09 08:56:00
4:15 AM,37.4,28.4,70,29.88,10.0,South,3.5,-,N/A,,Overcast,180,2014-04-09 09:15:00
4:36 AM,39.2,28.4,65,29.87,10.0,South,6.9,-,N/A,,Overcast,170,2014-04-09 09:36:00
4:55 AM,39.2,28.4,65,29.86,10.0,South,4.6,-,N/A,,Overcast,170,2014-04-09 09:55:00
5:16 AM,37.4,28.4,70,29.85,10.0,SSE,8.1,-,N/A,,Overcast,160,2014-04-09 10:16:00
5:35 AM,37.4,28.4,70,29.84,10.0,SSE,8.1,-,N/A,,Mostly Cloudy,160,2014-04-09 10:35:00
5:55 AM,37.4,28.4,70,29.83,10.0,SSE,9.2,-,N/A,,Mostly Cloudy,160,2014-04-09 10:55:00
6:16 AM,37.4,28.4,70,29.81,10.0,SSE,10.4,-,N/A,,Scattered Clouds,160,2014-04-09 11:16:00
6:35 AM,37.4,28.4,70,29.79,10.0,SSE,9.2,16.1,N/A,,Scattered Clouds,160,2014-04-09 11:35:00
6:55 AM,37.4,28.4,70,29.79,10.0,SSE,10.4,-,N/A,,Mostly Cloudy,160,2014-04-09 11:55:00
7:16 AM,37.4,28.4,70,29.77,10.0,SSE,9.2,-,N/A,,Scattered Clouds,160,2014-04-09 12:16:00
7:35 AM,39.2,28.4,65,29.77,10.0,South,8.1,-,N/A,,Clear,170,2014-04-09 12:35:00
7:55 AM,39.2,28.4,65,29.77,10.0,South,6.9,-,N/A,,Clear,170,2014-04-09 12:55:00
8:16 AM,41.0,28.4,61,29.76,10.0,South,4.6,-,N/A,,Clear,170,2014-04-09 13:16:00
8:35 AM,42.8,30.2,61,29.76,10.0,SSE,6.9,-,N/A,,Clear,160,2014-04-09 13:35:00
8:55 AM,44.6,30.2,57,29.75,10.0,South,6.9,-,N/A,,Clear,180,2014-04-09 13:55:00
9:16 AM,44.6,30.2,57,29.74,10.0,SSW,6.9,-,N/A,,Clear,200,2014-04-09 14:16:00
9:35 AM,46.4,30.2,53,29.73,10.0,SSW,6.9,-,N/A,,Clear,200,2014-04-09 14:35:00
9:55 AM,48.2,32.0,54,29.72,10.0,SSW,9.2,16.1,N/A,,Clear,210,2014-04-09 14:55:00
10:16 AM,51.8,33.8,50,29.71,10.0,SSW,8.1,-,N/A,,Clear,200,2014-04-09 15:16:00
10:55 AM,53.6,35.6,51,29.70,10.0,SSW,11.5,16.1,N/A,,Clear,210,2014-04-09 15:55:00
11:15 AM,55.4,35.6,47,29.70,10.0,SSW,8.1,16.1,N/A,,Clear,200,2014-04-09 16:15:00
11:35 AM,57.2,37.4,48,29.69,10.0,SSW,8.1,-,N/A,,Clear,200,2014-04-09 16:35:00
11:56 AM,57.2,37.4,48,29.68,10.0,SSW,9.2,16.1,N/A,,Clear,200,2014-04-09 16:56:00
12:15 PM,60.8,39.2,45,29.67,10.0,SSW,9.2,-,N/A,,Clear,200,2014-04-09 17:15:00
12:35 PM,60.8,39.2,45,29.66,10.0,SSW,10.4,16.1,N/A,,Clear,200,2014-04-09 17:35:00
12:55 PM,62.6,39.2,42,29.65,10.0,SSW,8.1,16.1,N/A,,Clear,200,2014-04-09 17:55:00
1:15 PM,64.4,42.8,45,29.63,10.0,South,5.8,-,N/A,,Clear,190,2014-04-09 18:15:00
1:36 PM,66.2,42.8,43,29.62,10.0,South,6.9,-,N/A,,Clear,190,2014-04-09 18:36:00
1:55 PM,66.2,42.8,43,29.61,10.0,SSW,10.4,-,N/A,,Clear,210,2014-04-09 18:55:00
2:15 PM,69.8,42.8,38,29.61,10.0,SSW,6.9,-,N/A,,Clear,200,2014-04-09 19:15:00
2:36 PM,69.8,42.8,38,29.60,10.0,SSW,8.1,18.4,N/A,,Clear,200,2014-04-09 19:36:00
2:56 PM,71.6,44.6,38,29.59,10.0,SSW,13.8,18.4,N/A,,Clear,210,2014-04-09 19:56:00
3:15 PM,73.4,44.6,36,29.58,10.0,SSW,9.2,18.4,N/A,,Clear,210,2014-04-09 20:15:00
3:36 PM,75.2,39.2,27,29.57,10.0,West,20.7,26.5,N/A,,Clear,260,2014-04-09 20:36:00
3:56 PM,75.2,39.2,27,29.56,10.0,WSW,17.3,26.5,N/A,,Clear,250,2014-04-09 20:56:00
4:15 PM,75.2,39.2,27,29.56,10.0,West,20.7,25.3,N/A,,Clear,260,2014-04-09 21:15:00
4:36 PM,75.2,39.2,27,29.55,10.0,WSW,19.6,26.5,N/A,,Clear,240,2014-04-09 21:36:00
4:56 PM,73.4,39.2,29,29.54,10.0,WSW,16.1,26.5,N/A,,Clear,250,2014-04-09 21:56:00
5:15 PM,75.2,39.2,27,29.54,10.0,WSW,15.0,-,N/A,,Clear,240,2014-04-09 22:15:00
5:36 PM,75.2,39.2,27,29.53,10.0,WSW,16.1,-,N/A,,Clear,240,2014-04-09 22:36:00
5:55 PM,75.2,39.2,27,29.52,10.0,WSW,13.8,-,N/A,,Clear,250,2014-04-09 22:55:00
6:15 PM,75.2,39.2,27,29.52,10.0,WSW,12.7,-,N/A,,Clear,250,2014-04-09 23:15:00
6:36 PM,75.2,41.0,29,29.51,10.0,WSW,10.4,-,N/A,,Clear,240,2014-04-09 23:36:00
6:55 PM,71.6,44.6,38,29.51,10.0,SW,9.2,-,N/A,,Clear,230,2014-04-09 23:55:00
7:15 PM,68.0,44.6,43,29.50,10.0,SW,9.2,-,N/A,,Clear,220,2014-04-10 00:15:00
7:36 PM,68.0,42.8,40,29.49,10.0,SW,10.4,-,N/A,,Clear,220,2014-04-10 00:36:00
7:55 PM,66.2,42.8,43,29.49,10.0,SW,10.4,-,N/A,,Clear,220,2014-04-10 00:55:00
8:15 PM,62.6,42.8,48,29.48,10.0,SW,8.1,-,N/A,,Clear,220,2014-04-10 01:15:00
8:36 PM,62.6,42.8,48,29.49,10.0,SW,10.4,-,N/A,,Clear,220,2014-04-10 01:36:00
8:55 PM,71.6,33.8,25,29.50,10.0,West,16.1,49.5,N/A,,Clear,270,2014-04-10 01:55:00
9:15 PM,69.8,35.6,28,29.50,10.0,WSW,19.6,27.6,N/A,,Clear,240,2014-04-10 02:15:00
9:36 PM,69.8,35.6,28,29.52,10.0,West,19.6,26.5,N/A,,Scattered Clouds,270,2014-04-10 02:36:00
9:55 PM,69.8,35.6,28,29.54,10.0,NW,21.9,31.1,N/A,,Scattered Clouds,310,2014-04-10 02:55:00
10:15 PM,64.4,37.4,37,29.56,10.0,NW,18.4,-,N/A,,Clear,310,2014-04-10 03:15:00
10:36 PM,62.6,41.0,45,29.57,10.0,NW,18.4,24.2,N/A,,Clear,320,2014-04-10 03:36:00
10:55 PM,59.0,41.0,51,29.58,10.0,NW,16.1,27.6,N/A,,Clear,320,2014-04-10 03:55:00
11:15 PM,57.2,41.0,55,29.60,10.0,NW,16.1,25.3,N/A,,Clear,320,2014-04-10 04:15:00
11:36 PM,55.4,39.2,54,29.61,10.0,NW,18.4,26.5,N/A,,Clear,320,2014-04-10 04:36:00
11:55 PM,53.6,39.2,58,29.64,10.0,NW,17.3,-,N/A,,Clear,320,2014-04-10 04:55:00